Date String (YYYY-MM-DD hh:mm:ss) UTC,Instrument flags,Ambient pressure (hPa),Sample flow (lpm),Bypass flow (lpm),Sample temperature (°C),Ambient temperature (°C),ASC tube jacket temperature (°C),LED temperature (°C),Box temperature (°C),Sample RH (%),Span deviation,Mass concentration (μg/m³),Mass concentration (μg/m³),Mass concentration (μg/m³)
DateTimeUTC,F1_M11,P_M11,Q1_M11,Q2_M11,T1_M11,T2_M11,T3_M11,T4_M11,T5_M11,U1_M11,ZSPAN_M11,X0_M11,X2_M11,X1_M11
2022-11-11 12:00:00,,0827.7,5.00,0.00,22.8,21.4,00.0,31.6,24.5,08.6,0000.0,0009.11,0003.55,0003.18
2022-11-11 12:01:00,,0827.7,5.01,0.00,22.7,21.3,00.0,31.6,24.5,08.6,0000.0,0009.03,0003.53,0003.17
2022-11-11 12:02:00,,0827.7,4.99,0.00,22.7,21.3,00.0,31.6,24.5,08.7,0000.0,0009.19,0003.51,0003.17
2022-11-11 12:03:00,,0827.7,5.02,0.00,22.7,21.2,00.0,31.6,24.5,08.7,0000.0,0009.01,0003.48,0003.16
2022-11-11 12:04:00,,0827.7,4.99,0.00,22.7,21.2,00.0,31.6,24.4,08.7,0000.0,0009.46,0003.50,0003.16
2022-11-11 12:05:00,,0827.7,4.99,0.00,22.7,21.7,00.0,31.6,24.6,08.7,0000.0,0009.46,0003.49,0003.16
2022-11-11 12:06:00,,0827.7,5.02,0.00,22.8,22.5,00.0,31.5,24.8,08.7,0000.0,0009.20,0003.49,0003.17
2022-11-11 12:07:00,,0827.7,4.98,0.00,22.9,22.5,00.0,31.5,24.8,08.6,0000.0,0009.14,0003.51,0003.17
2022-11-11 12:08:00,,0827.7,4.99,0.00,22.9,22.2,00.0,31.6,24.8,08.6,0000.0,0009.18,0003.50,0003.16
2022-11-11 12:09:00,,0827.7,4.99,0.00,22.9,22.0,00.0,31.6,24.8,08.6,0000.0,0009.10,0003.51,0003.16
2022-11-11 12:10:00,,0827.7,5.01,0.00,22.8,21.8,00.0,31.6,24.7,08.6,0000.0,0008.65,0003.50,0003.17
2022-11-11 12:11:00,,0827.7,5.00,0.00,22.8,21.7,00.0,31.6,24.7,08.6,0000.0,0008.05,0003.52,0003.17
2022-11-11 12:12:00,,0827.7,4.98,0.00,22.8,21.6,00.0,31.6,24.7,08.6,0000.0,0007.90,0003.53,0003.18
2022-11-11 12:13:00,,0827.7,5.00,0.00,22.8,21.5,00.0,31.6,24.6,08.6,0000.0,0007.76,0003.54,0003.19
2022-11-11 12:14:00,,0827.7,5.00,0.00,22.8,21.5,00.0,31.6,24.6,08.6,0000.0,0007.60,0003.52,0003.20
2022-11-11 12:15:00,,0827.7,5.01,0.00,22.8,21.5,00.0,31.6,24.6,08.6,0000.0,0006.87,0003.48,0003.21
2022-11-11 12:16:00,,0827.7,5.00,0.00,22.8,21.4,00.0,31.6,24.6,08.6,0000.0,0006.88,0003.48,0003.21
2022-11-11 12:17:00,,0827.7,4.99,0.00,22.8,21.4,00.0,31.6,24.5,08.6,0000.0,0007.24,0003.49,0003.21
2022-11-11 12:18:00,,0827.7,4.99,0.00,22.7,21.4,00.0,31.6,24.5,08.5,0000.0,0007.38,0003.47,0003.21
2022-11-11 12:19:00,,0827.7,5.00,0.00,22.7,21.3,00.0,31.6,24.5,08.5,0000.0,0007.42,0003.46,0003.22
2022-11-11 12:20:00,,0827.7,5.00,0.00,22.7,21.3,00.0,31.6,24.5,08.5,0000.0,0007.41,0003.46,0003.22
2022-11-11 12:21:00,,0827.7,5.02,0.00,22.7,21.4,00.0,31.6,24.5,08.5,0000.0,0007.23,0003.46,0003.22
2022-11-11 12:22:00,,0827.8,4.98,0.00,22.8,22.1,00.0,31.5,24.7,08.5,0000.0,0007.74,0003.44,0003.21
2022-11-11 12:23:00,,0827.7,5.00,0.00,22.8,22.7,00.0,31.5,24.9,08.5,0000.0,0008.38,0003.46,0003.20
2022-11-11 12:24:00,,0827.8,5.00,0.00,22.9,22.4,00.0,31.6,24.9,08.4,0000.0,0008.83,0003.45,0003.18
2022-11-11 12:25:00,,0827.8,5.00,0.00,22.9,22.1,00.0,31.6,24.8,08.4,0000.0,0008.86,0003.46,0003.17
2022-11-11 12:26:00,,0827.8,4.99,0.00,22.9,21.9,00.0,31.6,24.8,08.4,0000.0,0008.81,0003.50,0003.18
2022-11-11 12:27:00,,0827.9,5.00,0.00,22.8,21.7,00.0,31.6,24.7,08.4,0000.0,0008.58,0003.51,0003.18
2022-11-11 12:28:00,,0827.9,5.00,0.00,22.8,21.6,00.0,31.6,24.7,08.5,0000.0,0008.38,0003.53,0003.19
2022-11-11 12:29:00,,0827.9,5.00,0.00,22.8,21.6,00.0,31.6,24.7,08.5,0000.0,0008.52,0003.58,0003.20
2022-11-11 12:30:00,,0827.8,5.00,0.00,22.8,21.5,00.0,31.6,24.6,08.6,0000.0,0008.73,0003.60,0003.20
2022-11-11 12:31:00,,0827.7,5.02,0.00,22.8,21.3,00.0,31.6,24.6,08.6,0000.0,0009.41,0003.59,0003.21
2022-11-11 12:32:00,,0827.7,5.00,0.00,22.8,21.2,00.0,31.6,24.5,08.7,0000.0,0009.71,0003.60,0003.22
2022-11-11 12:33:00,,0827.7,4.99,0.00,22.7,21.0,00.0,31.6,24.5,08.7,0000.0,0009.42,0003.64,0003.24
2022-11-11 12:34:00,,0827.7,4.99,0.00,22.7,20.8,00.0,31.6,24.4,08.7,0000.0,0008.95,0003.63,0003.26
2022-11-11 12:35:00,,0827.7,5.01,0.00,22.6,20.6,00.0,31.6,24.3,08.7,0000.0,0008.94,0003.64,0003.27
2022-11-11 12:36:00,,0827.8,5.01,0.00,22.6,20.4,00.0,31.5,24.3,08.7,0000.0,0008.95,0003.64,0003.28
2022-11-11 12:37:00,,0827.9,4.99,0.00,22.5,20.6,00.0,31.5,24.2,08.8,0000.0,0009.02,0003.65,0003.29
2022-11-11 12:38:00,,0827.9,5.01,0.00,22.6,21.5,00.0,31.4,24.4,08.8,0000.0,0009.11,0003.67,0003.30
2022-11-11 12:39:00,,0827.9,4.99,0.00,22.7,22.4,00.0,31.4,24.7,08.8,0000.0,0009.07,0003.66,0003.31
2022-11-11 12:40:00,,0827.9,5.00,0.00,22.7,22.4,00.0,31.4,24.7,08.7,0000.0,0008.87,0003.63,0003.32
2022-11-11 12:41:00,,0827.8,5.01,0.00,22.7,22.0,00.0,31.5,24.6,08.7,0000.0,0008.76,0003.63,0003.33
2022-11-11 12:42:00,,0827.8,4.99,0.00,22.7,21.6,00.0,31.5,24.5,08.7,0000.0,0008.63,0003.67,0003.34
2022-11-11 12:43:00,,0827.8,4.99,0.00,22.7,21.4,00.0,31.5,24.5,08.7,0000.0,0008.40,0003.69,0003.35
2022-11-11 12:44:00,,0827.8,5.00,0.00,22.6,21.3,00.0,31.5,24.4,08.7,0000.0,0008.35,0003.72,0003.35
2022-11-11 12:45:00,,0827.8,5.00,0.00,22.6,21.1,00.0,31.4,24.4,08.7,0000.0,0008.27,0003.72,0003.35
2022-11-11 12:46:00,,0827.8,5.01,0.00,22.6,21.0,00.0,31.5,24.4,08.7,0000.0,0007.55,0003.73,0003.36
2022-11-11 12:47:00,,0827.7,5.01,0.00,22.6,21.0,00.0,31.4,24.4,08.7,0000.0,0007.56,0003.74,0003.36
2022-11-11 12:48:00,,0827.7,4.99,0.00,22.5,20.8,00.0,31.4,24.3,08.8,0000.0,0007.80,0003.74,0003.36
2022-11-11 12:49:00,,0827.8,4.99,0.00,22.5,20.6,00.0,31.4,24.2,08.8,0000.0,0007.97,0003.74,0003.36
2022-11-11 12:50:00,,0827.9,5.02,0.00,22.4,20.4,00.0,31.4,24.1,08.8,0000.0,0007.99,0003.73,0003.36
2022-11-11 12:51:00,,0827.9,4.99,0.00,22.4,20.1,00.0,31.4,24.0,08.9,0000.0,0007.95,0003.71,0003.35
2022-11-11 12:52:00,,0827.9,5.01,0.00,22.3,20.4,00.0,31.3,24.0,08.9,0000.0,0007.86,0003.71,0003.34
2022-11-11 12:53:00,,0827.9,5.00,0.00,22.4,21.4,00.0,31.3,24.2,08.9,0000.0,0007.31,0003.68,0003.34
2022-11-11 12:54:00,,0827.8,5.00,0.00,22.5,22.0,00.0,31.3,24.4,08.9,0000.0,0007.37,0003.68,0003.34
2022-11-11 12:55:00,,0827.8,5.00,0.00,22.5,21.7,00.0,31.3,24.3,08.9,0000.0,0007.46,0003.65,0003.34
2022-11-11 12:56:00,,0827.8,4.99,0.00,22.4,21.3,00.0,31.3,24.3,08.8,0000.0,0007.34,0003.63,0003.33
2022-11-11 12:57:00,,0827.8,5.01,0.00,22.4,21.1,00.0,31.3,24.2,08.8,0000.0,0007.34,0003.62,0003.33
2022-11-11 12:58:00,,0827.8,5.01,0.00,22.4,20.9,00.0,31.3,24.2,08.8,0000.0,0007.38,0003.62,0003.34
2022-11-11 12:59:00,,0827.8,4.98,0.00,22.4,20.8,00.0,31.3,24.1,08.9,0000.0,0006.91,0003.62,0003.34
